Back to catalog

QIANFAN-234

AliveCommunicationsPO
NORAD 69863·PAYLOAD·🇨🇳 China

Launched Jul 5, 2026 from Wenchang Space Launch Site

Loading…

Next Passes (next 24 hours)

TLE

FreshSource: Space-Track

Epoch: Sep 14, 2026, 12:35 UTC

1 69863U 26155R   26257.52439635 -.01894208  00000-0 -26545+1 0  9996
2 69863  89.0073  54.2424 0029619  27.1066 333.1630 13.61627820  9960

Track QIANFAN-234 in real time with AllMySat

Download on the App Store